Regional Weather Roundup
Issued by NWS Cleveland, OH

Home | Current Version | Previous Version | Graphics & Text | Print | Product List | Glossary On
Versions: 1 2 3 4 5 6 7 8 9 10 11 12 13 14 15 16 17 18 19 20 21 22 23 24 25 26 27 28 29 30 31 32 33 34 35 36 37 38 39 40 41 42 43 44 45 46 47 48 49 50
000
ASUS41 KCLE 290800
RWRCLE
OHIO REGIONAL WEATHER ROUNDUP
NATIONAL WEATHER SERVICE WILMINGTON, OH
400 AM EDT SAT AUG 29 2015

NOTE: "FAIR" INDICATES FEW OR NO CLOUDS BELOW 12,000 FEET WITH NO
SIGNIFICANT WEATHER AND/OR OBSTRUCTIONS TO VISIBILITY.

OHZ001>008-015>018-024>027-034-035-043-044-290900-
   NORTHWEST OHIO

CITY           SKY/WX    TMP DP  RH WIND       PRES   REMARKS
DEFIANCE       CLOUDY    64  58  80 SE3       30.12F
FINDLAY        CLOUDY    64  58  80 CALM      30.12F
TOLEDO EXPRESS CLOUDY    62  59  90 CALM      30.12F
TOLEDO EXEC    CLOUDY    63  58  83 SE6       30.13F
LIMA           CLOUDY    61  57  87 SE3       30.12F
$$

OHZ009>014-019>023-028>033-038-089-290900-
   NORTHEAST OHIO

CITY           SKY/WX    TMP DP  RH WIND       PRES   REMARKS
CLE-HOPKINS    MOCLDY    58  55  90 S3        30.17S
CLE-LAKEFRONT  MOCLDY    63  56  78 S7        30.13F
CUY CO. ARPT   NOT AVBL
LORAIN-ELYRIA  PTCLDY    55  53  93 CALM      30.15F
ASHTABULA      PTCLDY    53  53 100 CALM      30.17S
AKRON-CANTON   PTCLDY    61  56  83 CALM      30.16F
WOOSTER        NOT AVBL
MANSFIELD      PTCLDY    58  57  97 CALM      30.15F
YOUNGSTOWN     PTCLDY    54  53  97 SE7       30.16F
$$

OHZ042-051>053-060>062-070>072-077>081-290900-
  SOUTHWEST OHIO

CITY           SKY/WX    TMP DP  RH WIND       PRES   REMARKS
CINC-COVINGTON CLOUDY    68  59  73 CALM      30.11S
CINC-LUNKEN    PTCLDY    60  59  96 CALM      30.12S FOG
HAMILTON       PTCLDY    59  57  93 CALM      30.12F
DAYTON         NOT AVBL
WRIGHT-PAT AFB MOCLDY    63  60  90 CALM      30.12F
DAYTON GENERAL PTCLDY    67  56  67 SE8       30.11F
WILMINGTON     PTCLDY    61  56  83 SE3       30.13F
$$

OHZ036-037-039>041-045>050-054>059-063>069-073>076-082>088-290900-
  CENTRAL AND SOUTHEAST OHIO

CITY           SKY/WX    TMP DP  RH WIND       PRES   REMARKS
COLUMBUS       CLEAR     60  56  86 CALM      30.13F
OSU AIRPORT    PTCLDY    60  57  89 CALM      30.13F
BOLTON FIELD   NOT AVBL
RICKENBACK AFB NOT AVBL
NEWARK         CLEAR     53  51  93 CALM      30.14F FOG
MARION         CLOUDY    60  56  86 CALM      30.14F
LANCASTER      CLEAR     53  51  93 CALM      30.15S FOG
ZANESVILLE     CLEAR     55  51  86 CALM      30.15S
NEW PHILLY     CLEAR     52  52 100 CALM      30.16F
$$



USA.gov is the U.S. government's official web portal to all federal, state and local government web resources and services.